Temp
22 22 23 23 25 26 26 26 25 26 26 26 26 26 25 25 25 24 24 24 24 23 23 23 23 23 23 23 23 23 23 23 24 24 24 24 23 23 23 23 23 23 23 22 22 22 23 23 23 23 22 22 22 22 22 21 21 21 21 21 21 20 20 19 18 18 18 18 19 19 19 18 18 18 18 18 17 17 17 17 17 17 17 17 17
22 23 24 23 25 26 25 26 25 26 25 25 25 25 25 25 25 24 24 24 24 23 23 23 23 23 23 23 23 23 23 23 23 24 24 24 23 23 23 23 23 23 23 23 23 23 23 23 22 22 22 22 22 22 21 21 21 21 20 20 20 20 20 20 19 18 18 18 18 18 18 18 18 18 18 18 18 17 17 17 17 17 17 17 17
23 23 24 24 25 25 25 25 25 26 25 25 25 25 25 25 24 24 24 24 24 23 23 23 23 23 23 23 23 23 23 23 23 23 24 23 23 23 23 23 23 23 23 23 23 23 23 23 22 22 22 22 22 22 21 21 21 20 20 20 20 20 20 19 19 19 19 18 18 18 18 18 18 18 18 18 18 18 18 18 17 17 17 17 17
24 24 24 24 25 25 25 25 25 26 25 25 25 25 25 25 24 24 24 24 24 23 23 23 23 23 23 23 23 23 22 22 23 23 23 23 23 23 23 23 23 23 23 23 23 23 22 22 22 22 22 22 22 21 21 21 21 20 20 20 20 20 19 19 19 19 19 19 19 19 18 18 18 18 18 18 18 18 18 18 18 17 17 17 17
25 25 24 24 25 25 25 25 25 25 25 25 25 25 25 25 25 25 25 24 23 23 23 23 23 23 23 23 23 22 22 22 23 23 23 23 23 23 23 23 23 23 23 23 22 22 22 22 22 22 22 22 21 21 21 21 21 20 20 20 20 20 19 19 19 19 19 19 19 19 18 18 18 18 18 18 18 18 18 18 18 18 17 17 17
25 25 25 25 25 25 25 25 25 25 25 25 25 25 25 25 25 25 25 24 23 23 23 23 23 23 23 23 22 22 22 22 22 23 23 23 23 23 23 23 23 23 23 22 22 22 22 22 22 22 22 22 22 21 21 21 21 21 21 21 20 20 20 20 19 19 19 19 19 19 18 18 18 18 18 18 18 18 18 18 18 18 18 18 17
25 24 24 25 25 25 25 25 25 25 25 25 25 25 25 25 25 25 25 24 23 23 22 22 22 22 22 22 22 22 22 22 22 23 23 23 23 23 23 23 23 22 22 22 22 22 22 22 22 22 22 22 22 22 21 21 21 21 21 21 20 20 20 20 20 19 19 19 19 19 18 18 18 18 18 18 18 18 18 18 18 18 18 18 17
25 23 23 25 25 24 25 25 25 25 25 25 25 25 25 25 25 25 25 24 23 23 22 22 22 22 22 22 22 22 22 22 22 23 23 23 23 23 22 22 22 22 22 22 22 22 22 22 22 22 22 22 22 22 22 21 21 21 21 21 20 20 20 20 20 20 20 20 19 19 19 18 18 18 18 18 18 18 18 18 18 18 18 18 18
24 24 22 24 25 25 25 25 25 25 25 25 25 25 25 25 25 25 25 24 23 22 22 22 22 22 22 22 22 22 22 22 22 22 23 23 23 23 22 22 22 22 22 22 22 22 22 22 22 22 22 22 22 22 22 22 21 21 21 21 21 21 21 20 20 20 20 20 20 19 19 18 18 18 18 18 18 18 18 18 18 18 18 18 17
24 24 22 23 25 25 25 25 25 25 25 25 25 25 25 25 25 25 25 24 23 22 22 22 22 22 22 22 22 22 22 22 22 22 23 23 23 22 22 22 22 22 22 22 22 22 22 22 22 23 23 22 22 23 22 22 22 22 21 21 21 21 21 20 20 20 20 20 20 20 19 19 18 18 18 18 18 18 18 18 18 18 18 18 17
24 24 23 24 25 25 25 25 25 25 25 25 25 25 25 25 25 25 24 24 23 22 22 22 22 22 22 22 22 22 22 22 22 22 23 23 23 22 22 22 22 22 22 22 22 22 22 22 22 23 23 23 23 23 23 22 22 22 22 21 21 21 21 21 20 20 20 20 20 19 19 19 19 18 18 18 18 18 18 18 18 18 18 18 17
23 24 23 24 25 25 25 25 25 25 25 25 25 25 25 25 25 25 24 24 23 22 22 22 22 22 22 22 22 22 22 22 22 22 23 23 23 22 22 22 22 22 22 22 22 22 22 22 22 23 23 23 23 23 23 23 22 22 22 22 21 21 21 21 21 20 20 20 20 20 19 19 18 18 18 18 18 18 18 18 18 18 18 18 17
23 23 22 23 24 24 25 24 25 24 24 24 25 25 25 25 25 25 24 24 23 22 22 21 22 22 22 22 22 22 22 22 21 22 23 23 23 22 22 22 22 22 22 22 22 22 22 22 22 23 23 23 23 23 23 23 23 23 22 22 22 21 21 21 21 21 20 20 20 20 19 19 18 18 18 18 18 18 18 18 18 18 18 18 17
23 23 23 23 23 24 24 24 24 24 24 24 24 25 25 25 25 25 24 24 23 23 22 21 21 21 22 21 22 22 22 21 21 22 23 23 23 22 22 22 22 22 22 22 22 22 22 22 22 23 23 23 23 23 23 23 23 23 23 22 22 22 22 21 21 20 20 21 21 20 20 19 18 18 18 18 18 18 18 18 18 18 18 18 17
23 23 23 23 23 23 24 24 24 23 24 23 24 24 25 25 25 25 24 24 24 23 22 22 21 21 21 21 21 21 21 21 21 22 23 23 23 22 22 22 22 22 22 22 22 22 22 22 22 23 23 23 23 23 23 23 23 23 23 23 22 22 22 21 21 21 21 21 21 20 20 19 19 19 18 18 18 18 18 18 18 18 18 18 17
23 23 22 23 22 22 22 23 24 24 23 23 23 24 24 24 25 25 24 24 24 23 22 22 22 21 21 21 21 21 21 21 21 21 22 23 23 22 22 22 22 22 22 22 22 22 22 22 22 23 23 23 24 24 24 24 23 23 23 23 22 22 22 22 21 21 21 21 21 21 20 19 19 19 19 18 18 18 18 18 18 18 18 17 17
22 22 22 22 22 21 21 22 23 24 23 22 23 23 23 24 24 24 24 24 24 23 22 22 22 21 21 21 20 21 21 20 21 21 22 23 23 22 22 22 22 22 22 22 22 22 22 22 23 23 23 24 24 24 24 24 24 23 23 23 22 22 22 22 21 21 21 21 21 21 20 19 19 19 19 19 18 18 18 18 17 18 17 17 17
21 21 21 21 21 21 21 21 22 23 23 22 22 22 23 23 23 24 24 24 24 23 22 22 22 22 21 21 20 20 20 20 20 21 21 23 23 23 22 22 22 22 22 22 22 22 22 22 23 23 23 24 24 24 24 24 24 24 23 23 23 22 22 22 21 21 21 21 21 21 20 20 19 19 19 18 18 18 18 18 17 17 17 17 17
21 21 21 21 20 20 20 21 22 22 21 22 22 22 22 23 23 23 23 24 23 23 22 22 21 22 21 21 20 20 20 20 20 20 21 22 23 23 22 22 22 22 22 22 22 22 22 22 23 23 24 24 24 24 24 24 24 24 24 24 23 23 22 22 21 21 21 21 21 21 20 20 20 19 19 18 18 18 17 17 17 17 17 17 18
20 21 21 20 20 20 20 20 21 21 21 21 22 22 21 22 22 23 22 23 23 22 22 22 21 21 21 21 20 19 19 19 20 20 21 22 23 23 22 22 22 22 22 22 22 22 22 22 23 23 24 24 24 24 24 24 24 24 24 23 23 23 23 22 22 21 21 21 21 21 21 20 20 19 19 18 18 18 18 17 17 17 17 17 17
20 20 20 20 20 20 20 20 20 20 21 21 21 21 21 21 22 22 22 22 22 22 22 22 21 21 21 21 20 19 19 19 19 20 20 21 23 23 23 22 22 22 22 22 22 22 22 22 23 23 24 24 24 24 25 24 24 25 24 24 23 24 23 22 22 22 21 21 21 21 21 20 20 20 19 19 18 18 18 18 17 17 17 17 17
20 20 20 20 20 20 20 20 20 20 20 21 20 20 21 21 21 21 21 21 22 21 20 21 20 20 20 20 20 19 19 19 19 19 19 21 22 23 23 23 22 22 22 22 22 22 22 22 23 23 24 24 24 24 24 24 24 24 25 24 24 24 24 23 22 22 22 22 21 21 21 20 20 20 19 19 18 18 18 18 18 18 17 17 17
20 20 20 20 20 20 20 19 20 20 20 20 20 19 20 20 21 20 19 20 20 20 19 20 20 20 19 19 19 19 19 19 19 19 19 20 22 23 23 23 23 22 22 22 22 22 22 23 23 23 24 24 24 24 24 24 25 25 25 25 24 24 24 24 23 22 22 22 21 21 21 20 20 20 19 19 19 18 18 18 18 17 17 17 17
20 20 20 20 20 20 20 19 19 19 20 20 19 19 19 19 20 20 19 19 19 19 19 19 19 19 19 19 19 19 19 19 19 18 18 18 20 22 22 23 22 22 22 22 22 22 23 23 23 24 24 24 24 24 24 25 25 25 25 25 25 25 24 24 24 23 22 22 22 21 21 20 20 20 20 19 19 18 17 17 17 17 17 17 17
20 20 20 20 20 20 19 19 19 19 19 19 19 19 19 19 19 19 19 19 19 19 19 19 19 19 19 19 19 19 19 18 18 18 18 18 19 21 22 22 22 22 22 22 23 23 23 23 23 24 24 24 24 24 24 25 25 25 26 25 25 25 25 24 24 23 23 22 22 21 21 21 20 20 20 19 18 18 17 17 17 17 16 17 17
20 20 20 20 20 20 19 19 19 19 19 19 19 19 19 19 19 19 19 19 19 19 19 19 18 18 19 19 18 18 18 18 18 18 18 18 19 20 22 23 22 22 22 23 23 23 23 23 24 24 24 24 24 24 24 24 25 25 25 25 25 25 25 24 24 23 23 22 22 21 21 21 21 20 20 19 18 18 17 17 17 17 17 17 17
20 20 20 20 20 20 19 19 19 19 19 19 19 19 19 19 19 19 19 20 20 19 19 19 18 18 18 19 19 19 18 18 18 18 17 18 19 20 22 23 23 23 22 23 23 23 24 24 24 24 24 24 24 24 24 24 25 25 25 25 25 25 25 24 24 23 23 22 22 21 21 21 20 20 20 19 18 17 17 17 17 17 17 17 17
20 20 20 20 20 20 20 19 19 19 19 19 19 19 19 19 18 19 19 19 19 19 19 19 19 18 18 19 19 19 18 18 18 18 17 18 19 20 22 23 23 23 23 23 23 24 24 24 24 24 24 24 24 24 24 24 25 25 25 25 25 25 25 24 24 23 23 22 22 21 21 21 20 20 20 19 18 18 17 17 16 16 17 17 16
21 20 20 20 20 21 20 19 19 19 19 19 19 19 19 19 19 19 19 18 19 19 19 19 19 19 18 19 19 19 18 18 18 18 18 18 19 20 22 23 23 23 23 23 23 24 24 24 24 24 24 24 24 24 24 25 25 25 26 25 25 25 25 24 23 23 23 22 22 21 21 21 20 20 19 18 18 18 18 17 17 16 16 16 16
21 21 21 20 20 21 21 20 20 19 19 19 19 19 19 19 19 19 18 18 18 19 19 19 19 19 19 19 19 19 19 19 19 18 18 19 19 20 21 22 23 23 23 23 23 24 24 24 24 24 24 24 24 24 24 25 25 26 26 25 25 25 24 24 23 23 23 22 22 21 21 20 20 20 19 18 18 18 17 17 17 16 16 16 16
21 21 21 20 20 21 21 20 20 19 19 19 19 19 19 19 19 19 18 18 18 18 18 18 19 19 20 19 19 19 19 19 20 18 18 19 19 20 21 22 22 23 23 23 24 24 24 24 24 24 24 24 24 24 25 25 25 26 26 26 25 24 24 24 23 23 23 22 22 21 21 20 20 20 19 18 18 18 17 17 17 16 16 16 16
22 21 21 21 20 21 21 20 20 19 19 19 19 19 19 19 19 19 18 18 18 18 18 18 18 19 20 20 19 19 19 19 19 19 19 20 20 20 21 21 22 23 24 24 24 24 24 24 24 24 24 24 24 24 24 25 26 26 26 25 25 25 24 24 24 23 23 22 22 21 21 20 20 20 19 18 18 18 18 17 17 16 16 16 16
22 22 22 21 21 21 21 21 20 20 20 19 19 19 19 19 19 19 18 18 18 18 18 18 18 19 19 20 19 19 19 18 19 20 20 21 20 20 21 21 22 23 24 24 23 23 23 23 23 23 23 24 24 24 25 25 26 26 25 25 25 24 24 24 24 23 23 22 22 21 21 21 20 19 19 18 18 18 18 17 17 17 16 16 16
23 23 22 22 21 21 21 21 21 20 20 19 19 19 19 19 19 19 18 18 18 18 18 18 18 19 19 20 20 20 19 18 19 19 20 21 21 20 21 22 23 23 24 24 23 23 23 23 23 23 23 24 24 24 24 25 25 25 25 24 24 24 24 24 23 23 23 22 22 21 21 21 20 19 19 18 18 18 18 17 17 17 17 16 16
24 23 22 22 21 21 21 21 21 20 20 19 19 19 19 19 19 19 18 18 19 18 18 18 18 19 19 20 20 20 19 19 19 19 20 20 20 20 21 22 23 23 24 24 23 23 23 23 23 23 23 24 24 24 25 25 25 25 25 24 24 24 24 24 23 23 22 22 22 21 21 21 20 20 19 18 18 18 18 17 17 17 16 16 16
25 24 23 22 22 21 21 21 20 20 19 19 19 19 19 19 19 19 19 19 19 18 18 18 18 18 18 19 20 20 19 19 19 20 20 20 21 21 21 22 23 23 23 23 23 23 23 23 23 23 24 24 24 24 25 25 25 25 25 24 24 24 24 24 23 23 22 22 22 21 21 21 20 20 19 18 17 17 17 17 17 17 16 16 16
25 25 24 23 22 21 21 21 20 20 19 19 20 20 20 20 19 19 19 19 19 18 18 18 18 18 18 19 20 20 19 19 20 20 21 21 21 21 21 22 23 23 23 23 23 23 23 23 23 23 24 24 24 25 25 25 25 25 25 24 24 24 24 24 23 23 22 22 21 21 21 21 20 19 19 18 18 17 17 17 17 17 16 16 16
25 25 24 23 22 21 21 20 20 20 19 19 19 19 18 18 19 19 19 19 19 19 19 19 19 18 19 19 19 20 19 19 20 20 21 21 21 22 21 22 22 22 23 23 23 23 23 23 23 23 24 24 24 24 24 24 24 24 25 25 24 24 24 24 23 23 22 22 21 21 21 21 20 19 19 18 18 17 17 17 17 16 16 16 16
25 25 24 23 22 20 20 20 20 19 18 19 19 19 18 18 18 18 19 19 19 19 19 19 19 19 19 19 20 20 19 19 20 20 21 21 21 22 22 22 22 22 22 23 23 23 23 23 23 23 23 24 24 24 24 24 24 24 24 24 24 24 24 24 23 23 22 22 22 21 21 21 20 19 19 18 18 17 17 17 17 16 16 16 16
24 24 23 22 21 19 19 20 20 19 18 18 19 19 19 19 19 18 18 18 19 19 19 19 19 19 19 20 20 20 20 19 20 21 21 21 21 22 22 22 22 22 22 22 23 23 23 23 23 23 23 23 24 24 24 24 24 24 24 24 24 24 24 24 23 23 22 22 21 21 21 21 20 19 18 18 18 17 17 17 17 16 16 16 16
23 22 21 20 20 19 19 20 19 18 18 18 18 19 19 19 19 19 18 19 19 19 19 19 20 20 20 20 20 20 20 20 20 21 21 21 22 22 22 22 22 22 22 22 23 23 23 23 23 23 23 23 24 24 24 23 23 24 24 23 24 24 24 23 23 22 22 22 21 21 21 21 20 19 18 18 17 17 17 17 17 16 16 16 15
22 21 20 19 19 20 20 20 19 18 18 18 18 19 20 20 19 19 19 19 19 19 19 20 20 20 20 20 21 21 20 20 20 21 21 21 22 22 22 22 22 22 22 23 23 23 23 23 23 23 23 23 23 24 24 23 23 23 23 23 23 23 23 23 23 22 22 22 21 21 20 20 20 19 18 17 17 17 17 17 17 16 16 16 16
22 21 20 19 19 19 20 20 19 18 19 19 18 19 20 21 20 20 19 19 19 19 19 19 20 20 20 21 21 21 21 20 21 21 21 21 22 22 22 22 23 22 22 22 22 23 22 22 22 23 23 23 23 23 23 23 23 23 22 22 22 23 23 22 22 21 21 21 21 20 20 20 20 19 18 17 17 17 17 16 16 16 16 16 16
21 20 19 19 19 19 20 20 19 19 20 20 19 19 21 20 20 19 19 20 20 20 19 20 20 20 20 21 21 21 21 21 21 21 21 21 22 22 22 22 22 22 22 22 22 22 22 22 22 22 23 22 22 23 23 23 23 23 22 21 20 21 22 21 20 20 20 20 20 20 20 20 20 19 19 18 17 17 16 16 16 16 16 16 16
20 19 18 19 19 20 21 21 20 20 21 20 19 19 19 18 18 18 18 19 19 19 19 19 20 20 20 20 21 21 21 21 21 21 21 21 21 22 22 22 22 22 22 22 22 22 22 22 22 22 22 22 22 22 22 22 23 23 22 21 20 21 22 21 20 20 19 19 20 20 20 20 20 19 19 18 18 17 16 16 16 16 16 16 16
21 20 19 20 20 21 22 21 21 21 21 21 19 18 18 18 17 17 17 17 17 17 19 19 19 20 20 20 21 21 21 21 21 21 21 21 21 22 22 22 22 22 22 22 22 22 22 22 22 22 23 23 22 22 22 22 22 23 22 23 22 22 22 20 20 21 19 19 20 19 19 20 19 19 18 18 18 18 17 16 16 16 16 16 16
21 20 19 19 20 22 22 22 22 22 22 22 19 17 18 18 18 18 17 17 17 18 19 20 20 20 20 20 21 21 21 21 21 21 21 21 21 22 22 22 22 22 22 22 22 22 22 22 22 22 23 22 22 22 22 22 22 22 22 23 23 23 22 21 21 21 20 20 19 19 19 19 19 19 19 19 18 18 17 16 16 16 16 16 16
21 20 19 19 20 22 22 22 22 22 22 21 18 17 18 17 17 18 17 18 18 18 19 19 20 20 20 20 20 20 21 21 21 21 21 21 21 22 22 22 21 22 22 22 22 22 22 22 21 22 22 22 22 22 22 22 22 22 22 22 23 23 22 22 21 21 21 21 20 19 19 19 19 19 19 19 18 18 17 16 16 16 16 16 16
21 20 19 19 20 22 22 21 21 21 22 20 18 18 18 17 17 17 17 18 18 18 19 19 20 20 19 20 20 20 20 21 21 21 21 21 21 22 22 21 21 21 21 21 21 22 21 21 21 21 21 21 22 22 22 22 22 22 22 22 22 22 22 22 22 21 20 20 20 20 18 18 19 19 18 18 18 17 17 16 16 16 16 16 16
20 20 19 19 20 21 21 21 21 22 21 20 18 18 17 17 17 17 18 18 18 18 19 19 19 19 19 20 20 20 20 20 20 21 21 21 21 21 21 21 21 21 21 21 21 21 21 21 21 21 21 21 22 22 22 22 22 22 22 22 22 21 21 21 21 21 19 19 20 19 17 18 19 19 18 18 17 17 17 16 16 16 16 16 16
19 20 19 19 20 20 20 21 21 21 21 20 19 18 17 17 17 17 18 18 18 18 18 18 18 18 19 20 20 20 20 20 20 20 21 21 21 21 21 21 21 21 21 21 21 21 21 21 21 21 21 21 22 22 22 22 22 22 22 22 22 22 21 21 21 21 20 18 19 18 16 17 18 18 18 18 17 17 17 16 16 16 16 16 16
Height
764 766 768 768 769 768 769 769 771 772 774 776 777 779 779 781 782 784 786 787 788 790 790 792 794 795 797 798 799 800 802 803 804 806 807 808 809 810 810 811 812 813 814 815 815 815 816 816 817 818 819 819 820 820 820 820 821 821 822 822 822 822 822 822 823 823 823 824 824 824 824 824 824 824 824 824 824 824 824 823 823 822 822 822 822
759 764 766 768 769 769 770 770 772 773 776 777 778 780 781 782 783 785 786 788 789 790 791 793 794 796 797 798 800 801 803 804 805 807 808 809 810 811 811 812 813 814 815 816 816 816 817 817 817 818 820 820 820 821 821 822 822 822 823 823 823 823 823 823 824 824 824 825 825 825 825 825 825 825 825 825 825 825 824 824 824 823 823 823 823
757 763 765 768 769 770 771 771 773 774 777 778 780 781 782 783 784 786 787 789 789 790 792 793 795 796 798 799 801 802 804 805 806 808 809 810 811 812 812 813 813 814 815 817 817 817 818 818 818 819 821 821 821 822 822 822 823 823 824 824 824 824 824 825 825 825 825 825 826 826 826 826 826 826 826 826 826 825 825 825 825 824 824 824 824
757 761 765 768 769 770 771 772 773 774 777 779 781 782 783 785 785 787 788 789 790 792 793 794 796 797 799 800 801 803 805 806 807 808 809 810 811 812 813 814 814 815 816 818 818 819 819 819 819 820 821 822 823 822 823 823 824 824 824 825 825 825 825 826 826 826 826 826 826 827 827 827 827 827 827 827 827 826 826 826 826 825 825 825 824
757 759 763 766 768 770 771 772 774 775 777 779 781 783 784 785 786 787 788 790 791 793 794 795 796 797 799 800 802 804 805 807 808 809 810 811 812 813 814 815 815 816 817 818 819 820 820 820 820 820 822 823 823 823 823 824 825 825 825 826 826 826 826 827 827 827 827 827 827 827 828 828 828 828 828 828 828 827 827 827 827 826 826 826 825
757 758 761 764 767 769 771 773 774 776 778 780 782 783 785 786 787 788 790 791 792 794 795 796 797 798 799 801 803 804 806 807 808 810 811 812 813 814 815 815 816 817 818 819 820 821 821 821 821 821 822 824 824 824 824 824 825 826 826 826 826 827 827 827 827 828 828 828 828 828 828 828 829 829 829 829 829 828 828 828 827 827 827 826 826
756 759 761 762 765 769 771 773 774 776 778 780 782 783 785 786 787 788 790 792 794 795 796 797 798 799 800 802 803 805 807 808 809 810 812 813 814 815 815 816 817 818 819 820 820 822 822 822 822 822 823 824 825 825 825 825 826 826 827 827 827 827 827 828 828 828 828 828 829 828 829 829 829 829 830 830 830 829 829 829 828 828 828 827 827
758 761 763 762 764 768 772 774 775 776 778 780 781 783 785 786 788 789 790 792 794 796 797 798 799 800 801 802 804 806 807 809 810 811 812 814 815 816 816 817 818 819 819 820 821 822 823 823 823 822 823 825 826 826 826 826 827 827 828 828 828 828 828 828 828 829 829 829 829 829 829 830 830 830 830 830 830 830 830 830 829 829 828 828 828
757 761 764 764 765 767 770 773 775 776 778 780 781 783 785 786 788 789 790 792 795 796 798 799 800 801 802 803 805 807 808 809 810 811 813 814 816 816 817 818 819 820 820 821 822 823 824 824 824 823 824 825 826 826 827 827 828 828 828 828 828 828 829 829 829 829 829 829 829 830 830 830 830 830 831 831 831 831 830 830 830 830 829 829 828
755 759 763 764 765 766 767 771 774 775 776 778 781 783 784 786 788 789 790 792 794 796 798 799 801 802 803 804 805 807 808 810 811 812 814 815 816 817 818 819 820 820 821 822 823 824 825 825 825 824 825 825 827 827 827 828 828 829 829 829 829 829 829 830 830 830 830 830 830 830 830 830 830 831 831 831 831 831 831 831 830 830 829 829 829
752 757 761 763 765 765 766 770 773 775 775 776 778 781 784 785 787 789 790 791 794 796 798 800 801 802 804 805 806 808 809 810 811 813 814 815 817 818 819 820 821 821 822 823 823 825 825 826 826 825 825 826 827 827 828 828 829 829 829 829 829 829 830 830 830 830 830 830 830 830 831 831 831 831 831 832 832 832 831 831 831 830 830 830 829
751 756 760 763 764 765 766 769 772 775 776 776 776 778 782 784 787 789 790 791 793 796 798 800 801 803 804 806 807 808 809 810 812 813 814 816 817 819 820 821 821 822 823 824 824 825 826 827 826 826 826 827 827 828 828 829 829 829 830 830 829 830 830 830 830 830 831 830 830 830 831 831 831 832 832 832 832 832 832 832 831 831 831 830 830
750 755 760 764 765 766 767 769 773 776 777 778 777 776 779 781 785 788 790 792 793 796 798 800 801 803 805 807 808 809 810 811 812 813 815 816 818 819 820 821 822 823 824 824 825 826 827 827 827 827 827 827 828 828 829 829 829 830 830 830 830 830 830 831 831 831 831 831 831 831 831 831 831 832 832 832 832 833 832 832 832 831 831 831 830
749 754 759 763 765 767 767 770 773 776 778 779 779 778 778 780 782 785 789 792 794 796 798 800 802 804 805 807 809 810 811 812 813 814 815 817 818 820 821 822 823 824 824 825 826 827 828 828 828 828 828 828 828 828 829 829 830 830 830 830 830 830 830 831 831 831 831 831 831 831 831 831 832 832 832 832 832 833 832 832 832 832 832 831 831
749 752 757 761 765 768 769 771 773 777 778 780 781 780 780 780 782 783 786 790 793 796 798 800 802 804 806 808 810 811 812 813 814 815 816 817 819 820 821 822 823 825 826 826 827 828 828 829 829 828 828 828 829 829 829 830 830 830 831 830 830 830 831 831 831 831 831 831 831 832 831 832 832 832 832 832 832 832 833 832 832 832 832 832 831
751 753 757 760 764 767 770 772 773 777 779 780 781 781 782 782 783 783 785 788 792 796 798 800 802 804 806 808 810 812 813 814 815 816 817 818 820 821 822 823 824 825 826 827 828 828 829 829 829 829 829 829 829 829 830 830 830 831 831 831 831 831 831 831 831 831 832 832 832 832 831 832 832 832 832 832 832 832 832 832 832 832 832 832 832
753 755 758 761 764 767 770 771 773 776 778 780 782 782 784 784 784 784 784 787 791 795 797 800 802 804 806 808 810 812 814 815 816 817 818 819 820 822 823 824 825 826 827 828 829 829 830 830 830 829 829 829 829 829 830 831 831 832 832 832 832 832 832 832 832 832 832 832 832 832 831 832 832 832 832 832 832 832 833 832 833 833 833 833 833
755 757 758 761 763 767 769 771 773 775 777 780 782 783 784 785 786 786 785 787 790 794 797 800 802 804 806 808 811 812 814 815 816 817 818 820 821 822 823 824 825 827 828 829 829 830 830 830 830 830 829 829 829 829 830 831 831 832 832 832 832 832 832 832 832 832 832 832 832 832 831 832 832 832 832 832 833 833 833 833 833 833 833 833 833
757 758 760 762 764 767 768 770 771 773 777 779 781 784 786 786 787 788 787 787 789 793 796 799 802 804 806 808 811 813 814 816 817 818 819 820 821 823 824 825 826 827 828 829 830 830 831 831 831 830 830 830 829 830 830 831 831 832 832 832 833 833 833 833 833 833 833 833 832 832 832 832 832 832 832 833 833 833 833 833 834 834 834 833 833
758 760 762 764 765 767 768 770 771 772 775 778 781 783 786 787 788 789 789 790 790 792 796 799 802 804 806 808 811 813 815 816 817 818 819 821 822 823 824 826 827 828 829 830 830 831 831 832 831 831 830 830 830 830 830 831 831 831 832 832 833 833 833 833 833 833 833 833 833 832 832 832 832 832 832 833 833 834 834 834 834 834 834 834 834
760 761 762 764 766 768 768 770 771 772 774 777 781 783 785 787 789 790 791 792 791 793 795 798 802 804 806 808 810 812 814 816 817 819 820 821 822 823 825 826 827 828 829 830 831 831 832 832 832 831 831 831 830 830 830 831 831 830 831 832 833 833 833 833 833 833 833 834 833 833 832 832 832 832 833 833 833 834 834 834 835 835 835 835 834
759 761 763 764 765 767 768 770 772 773 774 776 780 782 784 786 789 790 792 793 793 794 796 798 801 803 806 807 810 812 814 816 817 819 820 821 822 823 825 826 827 828 829 830 831 832 832 832 832 832 831 831 831 831 831 831 831 830 830 831 832 832 833 833 833 833 833 833 834 833 833 832 832 832 833 833 834 834 834 835 835 835 835 835 835
758 761 763 764 765 766 768 770 772 774 775 776 779 783 784 785 787 790 793 794 794 795 796 798 800 803 805 807 809 811 813 815 817 819 820 821 822 824 825 826 828 828 829 830 831 832 832 833 832 832 832 832 832 832 832 832 831 830 830 831 832 832 832 832 833 833 833 834 834 833 833 833 833 833 833 833 833 834 835 835 835 835 836 836 836
757 759 762 764 765 766 768 770 771 774 776 777 779 782 785 786 787 789 793 795 796 797 797 798 800 802 804 806 808 810 813 815 817 819 820 822 823 824 825 827 828 828 829 830 831 832 832 833 833 833 833 833 832 832 832 832 831 830 830 831 831 832 831 831 832 833 833 834 834 833 833 833 833 833 833 833 834 834 835 835 836 836 836 836 836
756 759 762 764 765 766 768 770 771 773 776 778 779 782 785 787 787 789 792 795 798 799 798 799 801 802 804 806 808 810 812 814 817 819 820 822 823 824 825 826 827 828 829 830 831 832 832 833 833 833 833 833 833 832 832 832 831 830 830 830 831 831 830 830 831 832 833 834 833 833 833 833 833 833 833 834 834 835 835 836 836 836 837 837 837
755 758 760 763 765 767 768 769 771 773 776 778 780 782 784 786 787 788 790 793 797 800 800 800 801 803 804 806 808 810 812 814 817 819 820 821 823 824 825 826 827 828 829 830 831 831 832 832 833 833 833 833 833 832 832 831 831 830 830 830 830 830 830 830 830 832 832 833 833 833 833 833 833 833 834 834 834 835 836 836 836 837 837 837 838
753 756 758 762 764 766 768 769 771 773 776 778 780 782 784 786 787 788 788 789 793 798 799 800 802 803 804 806 808 809 811 814 816 818 819 821 822 823 824 826 827 828 829 830 831 831 832 832 833 833 833 833 833 832 832 831 831 831 830 830 830 830 829 830 830 831 832 832 832 833 833 833 834 834 834 834 835 836 836 836 836 837 837 838 838
751 755 757 760 763 765 768 769 770 772 774 777 780 781 783 786 787 789 789 787 789 794 797 798 801 803 804 806 807 809 811 813 815 817 819 820 822 823 824 826 827 828 829 830 831 831 832 832 832 833 833 833 832 832 832 831 831 831 830 830 830 829 830 830 830 831 831 832 832 833 833 834 834 834 834 835 835 836 836 836 837 837 838 838 838
750 753 756 758 760 763 766 769 770 771 773 775 778 781 782 785 787 789 790 789 788 791 795 797 799 802 804 805 806 808 810 812 814 816 818 819 821 822 824 825 826 828 829 830 830 831 831 831 832 832 833 833 832 832 831 831 831 831 830 830 829 829 830 830 830 831 831 832 832 833 833 834 834 835 835 835 836 836 836 836 837 837 838 838 839
750 752 754 756 758 761 764 767 769 771 773 773 776 779 782 785 788 789 791 791 790 791 794 795 797 799 802 804 806 807 809 811 813 815 817 819 820 822 823 824 826 827 828 829 830 830 831 831 832 832 832 832 832 832 832 832 831 831 830 829 828 828 829 830 831 831 831 832 832 833 834 834 835 835 835 835 836 836 836 836 837 837 838 839 839
751 753 754 756 758 760 762 765 768 771 773 774 776 778 781 784 787 789 790 791 791 792 793 794 795 797 799 802 804 806 808 810 812 814 816 818 820 821 823 824 825 827 828 829 829 830 830 831 831 831 832 832 832 832 832 832 831 831 830 829 828 828 829 831 831 831 831 832 832 833 834 834 835 835 835 836 836 836 837 837 837 838 838 839 839
752 752 754 756 758 759 761 764 767 771 773 775 776 778 780 782 785 787 789 790 791 792 793 793 793 796 798 800 803 805 807 809 811 813 815 817 819 821 822 823 824 826 827 828 829 829 830 830 831 831 832 832 832 832 832 832 831 831 831 830 829 829 831 831 831 831 831 832 832 833 834 835 835 835 836 836 836 837 837 838 838 838 839 839 840
749 751 753 754 756 758 760 763 766 770 772 774 775 777 778 780 783 784 787 789 790 792 793 792 792 794 797 799 802 804 807 809 811 813 815 817 819 820 822 823 824 825 827 828 828 829 829 830 830 831 831 832 832 832 832 832 832 832 832 831 830 831 831 831 832 831 832 832 833 833 834 835 835 835 835 836 836 837 838 838 839 839 839 839 840
747 749 751 752 754 757 759 762 764 767 770 774 776 778 780 782 784 785 787 789 791 792 793 793 792 793 796 798 800 803 806 808 811 813 814 816 818 819 821 822 823 824 826 827 828 828 829 829 829 830 830 831 832 832 832 831 831 832 833 832 831 831 831 831 832 831 832 832 833 834 834 834 835 835 835 835 836 837 838 838 839 839 840 840 840
745 747 749 750 753 755 758 760 763 766 769 773 776 780 783 785 786 787 788 790 792 794 795 795 794 794 796 798 800 802 805 808 810 812 814 815 817 819 820 821 822 824 825 826 827 828 828 828 829 829 830 831 831 831 831 831 831 832 833 833 832 831 831 831 831 831 832 832 833 834 834 834 834 834 835 835 836 837 838 838 839 839 840 840 841
743 745 747 749 751 754 757 760 763 765 768 770 774 778 780 782 784 786 788 790 792 794 797 798 798 797 798 799 800 802 804 807 809 812 813 815 816 818 819 820 822 823 824 825 826 827 827 828 828 829 829 830 830 831 831 830 830 830 831 833 833 831 830 830 830 831 832 832 833 833 834 834 834 834 835 835 836 837 838 838 839 839 840 840 841
742 743 745 747 750 753 756 759 761 764 766 768 771 773 775 776 778 781 784 787 789 792 796 799 801 801 801 801 801 802 804 806 809 811 812 814 815 817 819 820 821 822 823 825 825 826 827 827 828 828 828 829 830 830 830 830 830 829 830 831 832 831 830 830 830 831 831 832 833 833 833 833 834 834 835 835 836 837 838 838 839 839 840 840 841
741 742 743 744 747 750 753 757 760 762 764 767 770 772 774 776 776 777 779 781 784 787 792 796 800 802 803 802 802 802 804 806 808 810 812 813 815 817 819 820 821 822 823 824 824 825 826 827 827 827 827 828 828 829 830 830 829 829 829 829 831 831 830 829 830 830 831 832 832 832 833 833 834 834 835 836 836 837 838 838 839 839 840 840 841
739 740 741 743 744 747 750 754 758 760 762 766 768 771 776 780 780 780 780 780 780 782 785 790 795 800 802 803 803 803 804 806 807 809 811 813 814 816 818 819 820 821 822 823 824 824 825 826 826 826 827 827 828 829 829 829 829 829 829 829 830 830 830 829 830 830 831 831 831 832 832 833 834 834 835 836 837 837 838 838 839 839 840 840 841
737 738 740 741 742 745 748 752 755 757 761 764 767 771 775 778 780 781 781 782 782 781 780 783 789 795 800 802 803 803 804 806 807 808 809 811 813 815 817 819 819 820 821 822 822 822 823 824 825 826 826 826 827 828 829 829 829 829 829 829 829 830 830 830 830 830 830 830 831 831 832 833 833 834 834 835 836 837 837 838 839 839 840 840 841
737 738 738 738 740 743 745 748 752 755 758 762 765 771 774 772 774 776 777 780 782 782 780 781 785 791 796 799 801 801 802 804 805 806 808 810 812 814 816 817 818 819 820 820 821 822 823 823 824 825 825 826 826 827 828 828 828 828 828 829 828 829 829 829 829 829 829 829 830 831 832 833 833 833 833 835 836 837 837 838 838 839 839 840 841
734 736 737 738 739 741 743 746 750 753 757 759 762 769 771 767 766 769 772 776 780 782 782 781 783 788 793 795 797 799 800 801 803 804 805 807 810 812 814 815 816 817 818 819 820 821 822 823 823 824 824 825 825 826 827 827 827 828 828 828 828 828 829 828 828 828 829 829 830 831 832 832 832 833 833 834 835 836 837 837 838 839 839 840 840
732 733 734 736 738 740 743 745 747 750 754 757 759 763 764 763 763 766 769 773 776 779 782 783 785 787 790 793 795 796 797 798 799 801 803 805 807 809 811 813 815 816 817 818 819 820 820 821 822 823 823 824 824 825 826 826 827 827 828 829 829 829 829 828 827 827 828 829 830 831 831 832 832 833 833 833 835 836 836 837 838 838 839 839 839
732 733 733 734 736 738 741 743 746 748 751 753 755 757 758 760 763 765 767 769 770 773 777 782 785 787 789 790 792 792 794 795 796 798 800 802 804 807 809 811 813 814 815 816 816 817 818 820 821 821 822 822 823 824 825 825 826 826 828 829 830 830 831 830 827 827 828 829 830 830 831 831 832 832 833 833 834 835 836 837 838 838 838 839 839
730 731 731 732 733 735 738 740 743 745 747 749 751 754 757 759 762 766 769 769 770 771 773 777 781 784 786 787 788 789 791 792 794 795 797 799 802 804 807 809 811 812 813 814 814 815 817 818 819 820 820 820 821 822 823 824 824 825 826 827 829 831 831 830 828 827 827 829 830 830 830 831 831 831 832 833 834 834 835 836 837 838 838 838 839
725 728 729 729 730 732 735 737 739 742 744 746 748 752 755 757 760 763 766 766 767 767 767 771 776 779 781 783 785 786 787 789 791 793 794 796 799 802 804 807 809 810 811 812 813 814 815 816 817 818 818 818 820 821 822 823 824 824 824 824 826 827 827 828 830 829 827 828 829 829 830 830 830 831 831 833 833 834 835 836 837 837 838 837 838
720 724 727 728 729 730 732 734 736 739 741 742 745 749 752 755 757 759 761 761 762 762 762 766 770 774 776 779 781 783 784 786 788 790 792 794 797 799 802 804 806 808 809 810 811 812 813 814 815 816 816 817 819 820 821 822 822 822 823 823 823 823 824 826 829 830 829 828 827 828 829 829 829 830 831 832 833 833 834 835 836 837 837 837 838
717 720 724 726 727 728 730 732 734 736 738 740 742 745 749 752 755 757 758 758 759 760 761 764 767 771 774 776 778 780 781 783 785 787 789 792 794 797 800 802 804 806 807 808 809 810 811 812 814 815 816 817 817 818 820 821 821 820 821 822 822 822 823 824 825 827 829 829 828 828 828 828 829 829 830 831 832 832 833 834 835 836 837 837 838
714 716 719 722 724 726 728 730 732 734 735 737 739 742 746 749 752 755 756 756 757 759 761 763 765 767 770 773 776 778 779 781 782 784 787 790 792 795 797 800 802 804 805 807 808 809 810 811 812 813 814 815 816 817 819 819 819 819 820 821 822 822 822 822 823 825 826 828 829 828 827 828 828 829 830 830 831 832 833 834 835 835 836 837 838
711 712 715 719 722 724 726 727 729 731 733 735 737 740 743 747 750 752 753 754 755 756 759 761 762 763 766 769 771 773 775 778 779 781 784 787 790 792 795 797 799 801 803 805 806 807 808 809 810 811 813 814 815 816 817 818 819 819 819 820 820 821 821 821 821 823 824 826 828 828 827 827 828 829 829 830 830 831 832 833 834 835 835 836 837
714 711 712 716 719 722 724 725 727 729 730 733 735 737 740 744 747 749 750 751 752 754 756 757 759 761 762 764 766 769 771 774 776 778 781 784 787 790 792 795 797 799 801 802 804 804 805 807 809 810 811 813 814 815 816 817 818 818 818 819 819 819 820 819 819 820 822 824 826 827 827 827 827 828 829 829 830 831 831 832 834 834 835 835 836
Wind_Speed
29 29 29 30 31 32 32 32 31 31 30 29 29 28 28 27 26 26 26 27 27 28 28 29 29 29 29 29 30 29 29 29 29 29 29 29 28 27 27 26 24 23 22 22 23 24 24 24 24 24 23 23 24 25 26 27 26 25 25 24 23 22 21 20 19 19 19 18 17 17 17 16 15 15 16 17 17 16 16 15 16 16 15 14 14
33 32 33 31 32 32 32 32 31 31 29 29 29 28 28 27 27 27 27 27 28 28 28 28 28 29 29 29 29 29 28 28 29 29 29 28 28 27 26 26 25 24 23 24 25 25 25 26 26 25 24 24 24 25 26 25 24 24 24 24 23 23 22 21 19 19 18 17 17 17 16 16 15 15 16 16 15 15 15 15 15 15 15 14 13
37 34 33 32 33 32 32 32 31 32 30 29 28 28 28 27 27 27 27 27 28 28 29 28 29 29 29 29 28 29 28 28 28 28 28 28 27 27 26 25 25 25 25 25 25 26 26 27 27 27 25 24 24 25 25 23 22 22 21 21 20 20 20 20 19 18 17 16 16 17 16 16 16 15 14 13 14 15 15 14 14 15 14 13 13
39 36 34 33 33 32 32 32 32 32 30 30 28 28 28 27 27 27 26 26 27 28 29 29 29 29 29 29 28 28 28 27 28 27 27 27 27 27 26 25 25 25 26 26 26 26 27 27 28 27 25 24 24 24 24 22 20 20 19 18 16 16 16 17 17 17 16 16 16 18 18 18 17 15 14 13 13 14 14 14 14 15 14 13 13
40 39 36 35 34 33 33 32 32 32 31 30 29 28 28 28 27 27 26 26 27 28 28 29 29 29 29 29 28 28 27 27 27 27 27 27 27 26 26 26 26 26 26 26 26 26 26 27 27 26 24 23 23 23 22 20 19 18 17 16 15 14 14 14 14 14 14 14 14 17 18 17 17 15 14 13 12 12 13 13 14 13 13 13 13
41 41 38 37 35 34 33 33 32 32 31 30 29 28 28 28 27 27 26 26 27 27 28 28 29 29 29 28 28 27 27 27 26 26 26 26 27 26 26 26 26 26 26 26 26 25 25 26 25 25 23 21 20 20 20 18 16 16 15 14 14 13 13 13 12 12 11 11 11 15 16 15 15 14 13 13 12 12 12 12 13 13 12 12 12
42 41 40 39 36 35 34 34 33 32 32 30 29 28 28 28 27 27 26 26 26 27 27 28 29 29 28 28 27 27 26 26 26 26 25 26 26 26 26 26 26 26 27 26 25 24 24 24 24 24 22 20 19 18 18 16 15 14 14 13 13 13 13 12 12 11 10 10 10 14 15 14 13 13 12 13 12 12 12 11 11 12 11 11 12
41 38 37 39 38 36 35 34 33 33 32 31 30 28 28 28 28 28 27 26 26 26 26 27 28 28 28 27 27 26 25 25 25 25 25 26 26 26 26 26 26 26 26 25 24 23 22 22 22 22 20 19 17 17 16 15 14 13 12 13 13 14 14 13 12 11 10 10 11 13 15 14 13 12 12 12 12 11 11 11 11 11 11 11 10
41 38 35 37 39 37 36 35 34 34 33 31 30 29 29 28 29 28 28 27 26 26 26 26 27 28 28 27 27 26 25 24 24 24 24 26 26 26 26 26 26 26 25 24 22 21 20 20 20 20 19 18 16 16 15 15 15 14 13 14 16 16 16 14 13 11 10 10 11 12 14 15 14 12 11 11 11 11 10 10 10 10 10 10 9
43 40 36 37 39 39 37 37 35 35 34 33 31 30 29 29 29 28 28 27 27 26 26 26 27 28 28 27 26 26 25 24 23 23 24 25 26 26 26 26 25 25 24 23 21 20 19 19 19 19 18 17 15 15 15 15 15 15 14 14 15 15 15 15 13 11 9 9 10 11 13 14 14 13 11 11 11 10 10 10 10 10 9 9 9
43 41 39 38 40 38 38 37 36 36 36 36 34 32 30 29 29 29 29 28 27 26 26 26 27 27 27 27 26 26 24 23 23 23 24 25 26 26 26 25 24 23 22 21 20 19 18 18 18 17 16 15 14 13 13 14 14 14 13 12 12 13 14 14 13 11 10 9 10 11 12 13 13 12 11 11 11 10 9 9 9 9 9 9 8
41 41 38 39 40 37 38 37 37 36 36 37 36 35 32 30 29 29 29 28 28 27 26 26 27 27 27 27 26 25 24 23 23 23 23 24 26 26 26 25 23 22 21 20 20 19 18 17 16 16 15 14 13 12 11 12 13 13 12 11 11 12 14 14 12 11 11 10 10 11 12 13 13 11 10 10 10 10 9 9 9 9 9 9 9
40 40 37 39 39 37 37 36 37 36 35 35 36 36 34 33 31 30 29 28 28 27 26 26 26 26 26 26 26 25 24 23 22 22 23 24 26 26 26 24 22 21 20 20 19 18 17 16 15 14 14 13 12 11 10 10 11 11 11 11 11 11 13 14 12 10 11 10 10 11 12 13 12 11 10 9 9 9 9 8 8 9 9 9 9
42 40 39 38 37 37 36 36 37 36 35 34 34 35 34 34 33 31 29 28 28 27 26 26 26 26 26 26 25 24 23 22 21 22 22 24 25 26 25 23 21 20 19 19 18 17 15 14 13 12 12 12 11 10 9 9 10 11 10 10 10 11 13 15 12 10 10 10 9 10 12 13 12 11 10 10 9 9 8 8 8 9 10 10 9
43 42 40 39 37 35 35 36 35 35 35 34 33 33 33 33 33 32 31 29 27 27 26 25 25 25 25 25 24 23 22 21 21 21 21 23 25 26 25 23 21 19 19 18 17 16 14 13 11 11 11 11 10 9 8 9 9 10 10 9 9 11 13 14 13 10 9 9 9 10 11 12 12 11 11 10 10 9 9 9 9 9 9 9 10
40 40 40 39 37 35 35 35 35 35 33 33 33 32 32 32 32 33 32 30 28 27 26 25 25 24 24 24 24 22 21 20 19 20 20 22 24 25 25 23 20 20 18 17 16 14 13 12 10 10 10 10 9 9 9 9 9 9 9 9 9 11 12 14 13 10 10 9 8 9 11 12 11 11 11 10 10 9 9 9 10 10 10 10 10
37 38 38 37 37 36 34 35 35 34 33 32 32 32 32 32 32 32 32 30 28 27 26 25 25 24 24 24 23 22 21 20 18 19 20 21 23 24 24 23 21 20 18 16 15 13 12 11 9 9 9 9 9 9 10 10 9 8 9 9 9 10 13 13 12 10 10 9 7 9 11 12 11 11 11 10 10 9 10 10 10 11 11 10 10
35 36 36 36 37 35 34 34 35 34 33 32 31 32 32 32 32 32 32 30 29 28 27 26 25 24 24 24 24 22 21 19 18 18 19 21 23 24 24 23 21 20 18 16 14 13 12 10 9 8 8 8 8 9 10 10 9 7 8 9 8 10 13 13 12 9 10 9 7 9 11 11 11 10 10 10 10 9 10 10 11 11 11 10 9
33 34 34 34 35 34 33 33 34 34 33 32 31 31 32 32 31 31 31 31 30 29 27 26 25 24 24 25 24 22 21 19 17 18 19 21 22 24 24 23 21 20 18 16 14 13 12 10 8 7 7 7 8 9 10 9 8 8 7 7 8 9 11 13 12 9 9 9 8 9 11 11 10 10 10 10 10 10 10 11 11 11 10 10 9
30 32 32 32 32 33 32 32 33 34 32 32 32 31 31 31 31 30 30 30 30 29 27 26 25 24 24 24 24 22 20 19 18 17 19 21 22 23 24 23 22 20 18 16 14 13 11 9 7 6 6 7 8 9 9 8 6 6 6 4 6 7 9 12 12 9 9 9 8 9 11 11 10 10 10 10 10 10 10 11 11 10 9 9 9
27 30 31 32 31 31 31 31 32 33 33 32 32 32 32 31 30 30 30 29 29 29 28 26 25 24 24 24 23 23 21 20 18 18 19 21 22 23 24 24 22 20 18 16 14 12 11 8 6 6 6 6 7 8 8 6 4 4 4 1 1 4 7 11 12 9 10 10 10 10 11 11 10 10 10 10 10 10 10 10 10 9 9 9 9
26 28 29 32 32 31 31 31 31 32 33 33 32 32 32 32 31 30 29 29 29 28 27 27 26 25 24 24 24 23 22 21 19 19 19 21 22 23 24 24 22 20 18 16 14 12 11 8 6 5 5 6 6 6 4 2 1 1 1 2 4 0 2 7 12 10 11 11 11 11 11 11 11 10 10 10 10 9 9 10 10 8 8 9 9
26 27 28 30 31 31 32 32 32 31 32 33 32 31 31 32 32 30 28 27 28 27 27 27 27 26 25 25 24 24 23 22 20 19 19 20 21 23 24 24 23 21 18 16 14 13 11 8 6 5 5 6 5 4 1 2 2 4 3 5 6 3 2 5 13 12 11 11 11 12 12 11 11 10 10 10 9 9 9 9 9 9 9 9 9
27 28 29 29 30 31 31 32 32 32 31 31 32 30 30 30 31 30 28 26 26 26 27 27 26 26 26 25 24 23 23 22 20 19 18 18 19 21 23 23 23 21 19 17 15 13 11 8 6 6 6 6 4 2 2 2 2 3 4 5 6 3 3 7 14 15 13 12 12 13 12 12 11 10 10 9 9 9 10 9 9 9 9 9 8
27 27 28 29 30 31 31 31 32 32 31 30 31 31 30 29 30 30 29 27 25 26 26 26 26 26 26 25 24 23 22 22 21 18 18 19 19 20 22 23 24 22 21 18 16 13 10 8 7 7 7 5 3 0 1 2 2 3 4 7 8 6 5 9 15 16 15 13 13 13 12 12 11 10 9 9 10 10 10 9 8 8 8 8 8
27 28 30 30 30 31 31 31 31 32 31 30 30 31 30 29 30 31 31 29 26 26 26 26 26 26 26 25 24 23 23 23 22 20 19 19 19 21 22 24 24 23 22 18 16 13 11 9 8 8 7 4 2 2 3 4 5 7 8 11 12 8 6 10 16 17 16 14 14 13 12 11 10 10 9 10 10 10 10 9 8 8 8 7 7
30 30 31 30 31 31 30 31 32 32 31 30 30 31 30 29 30 31 33 33 31 29 27 27 26 26 26 25 24 24 25 24 23 21 20 20 20 21 23 23 24 23 22 19 16 14 12 10 9 8 6 3 1 3 5 6 8 11 12 13 12 7 6 13 18 18 16 15 14 13 12 11 10 10 10 10 10 10 10 9 8 8 8 8 7
30 30 30 31 32 32 31 32 33 33 32 31 30 31 30 29 29 29 31 33 34 31 30 28 27 27 26 25 24 25 26 25 24 22 21 21 21 21 22 23 23 23 22 20 17 15 12 10 9 8 5 3 2 4 7 9 11 13 10 9 7 4 11 17 19 18 16 14 14 13 12 11 10 10 10 10 10 10 9 8 9 8 8 8 7
29 31 32 32 34 34 33 33 33 34 35 33 32 30 30 29 28 28 29 30 32 33 31 30 28 27 27 25 25 26 26 26 25 23 22 22 22 22 22 23 23 22 21 20 18 15 13 12 10 7 4 2 3 6 8 10 11 9 7 10 9 5 14 19 20 16 14 13 13 12 12 11 11 10 10 11 11 10 9 8 9 8 8 8 7
30 32 32 33 34 35 35 35 34 34 34 34 33 31 29 28 27 27 28 28 30 32 32 31 30 29 28 27 26 26 27 27 27 24 23 23 22 22 22 23 23 22 21 20 18 16 14 13 10 7 4 2 4 5 8 8 7 6 6 14 10 9 17 18 18 14 12 12 12 12 12 11 10 10 9 10 10 10 9 8 9 8 7 7 6
26 29 31 32 34 35 36 35 35 33 32 32 32 31 30 29 28 28 28 28 28 29 31 32 32 31 29 28 27 27 27 28 28 26 24 23 22 22 23 23 23 22 21 19 18 16 15 14 10 7 3 3 4 3 6 6 4 5 7 14 7 12 17 16 14 11 11 11 11 12 11 11 10 9 9 10 10 9 9 9 9 8 8 7 5
25 28 30 31 33 35 35 35 34 33 31 30 30 30 31 30 30 30 30 30 29 29 30 31 32 32 30 29 28 28 28 27 28 27 25 24 22 22 23 24 23 22 21 20 18 17 16 13 10 7 3 4 5 6 7 6 3 6 9 10 5 10 13 12 10 9 9 10 10 11 10 10 9 9 9 10 10 9 8 8 8 8 8 6 4
29 30 30 32 34 35 36 35 34 33 33 32 31 31 32 32 32 32 31 31 30 30 31 32 33 32 31 30 28 28 29 27 27 27 25 23 22 21 24 25 24 22 21 20 19 18 16 14 11 7 5 6 7 9 9 6 3 6 7 6 5 8 9 9 8 7 8 8 9 9 9 9 9 10 9 10 10 9 8 8 8 8 7 5 4
31 31 30 33 36 37 36 35 35 36 34 31 29 29 29 29 30 30 30 31 31 30 31 32 33 33 32 30 28 29 30 28 27 26 24 23 21 20 23 26 25 22 21 21 20 18 16 15 12 10 9 9 9 10 9 7 5 3 5 4 3 4 6 6 6 6 7 7 8 8 7 8 9 10 10 11 10 9 9 9 8 9 7 5 4
29 31 31 33 36 37 37 36 36 35 31 28 25 24 25 25 27 28 29 31 31 30 29 29 31 32 33 30 28 31 31 28 27 26 24 23 22 20 23 26 25 23 23 23 22 20 17 16 14 13 12 11 10 10 10 10 8 5 2 1 1 1 2 4 5 6 7 7 7 7 7 7 9 10 10 12 11 10 9 9 9 9 7 7 4
25 29 31 32 35 36 36 35 33 32 29 28 27 26 27 27 27 27 28 30 30 29 26 25 27 29 31 31 29 31 31 29 27 26 25 24 22 22 23 25 25 24 25 24 23 22 19 16 16 16 15 13 12 10 10 10 9 8 8 4 4 3 2 3 5 6 7 7 7 7 7 7 8 9 10 12 12 11 10 9 10 9 9 8 6
25 27 30 31 34 35 33 32 31 32 30 30 32 32 32 33 33 32 30 31 30 28 25 24 25 27 29 30 30 32 32 29 28 26 26 26 24 23 23 24 26 26 26 24 24 24 21 18 17 18 17 14 13 11 10 8 7 7 10 9 6 5 4 2 2 4 6 6 7 6 7 6 7 9 11 12 13 12 11 10 10 10 9 9 7
29 27 29 31 34 36 33 32 32 33 31 29 30 29 25 23 28 35 35 34 34 30 27 26 26 27 29 30 30 33 32 29 28 26 28 28 25 24 24 25 27 27 27 25 24 25 24 20 19 19 18 16 15 13 10 8 7 7 10 9 9 7 4 3 2 2 4 5 6 6 6 5 7 9 10 12 12 12 11 10 10 10 10 10 8
32 30 30 31 34 35 34 35 35 34 31 28 29 28 23 16 16 25 29 30 34 34 32 30 29 28 29 30 31 33 32 29 27 26 28 31 29 26 26 27 28 28 27 26 26 27 26 23 21 20 18 17 16 14 12 9 9 8 6 4 8 7 5 5 4 3 3 4 5 5 5 4 6 8 10 11 12 11 12 11 11 12 11 11 10
32 30 29 30 33 35 34 36 37 35 31 28 30 29 28 25 19 22 25 25 29 35 35 34 32 30 30 30 31 33 32 29 28 26 26 31 32 30 29 29 30 29 28 29 29 28 28 26 23 21 19 18 17 15 14 12 10 8 4 4 7 5 5 5 5 3 3 4 5 6 5 4 6 8 9 11 11 11 12 11 12 12 11 12 12
26 25 27 30 33 35 36 37 36 35 33 29 29 30 33 35 30 29 30 28 28 31 33 33 33 32 31 31 32 34 33 30 29 27 26 30 33 32 31 32 32 30 30 32 31 29 28 27 25 23 21 19 18 18 16 13 9 7 6 7 9 8 7 7 6 5 4 5 5 6 6 5 7 9 10 11 12 12 12 11 11 12 13 15 14
24 23 26 31 33 34 36 38 36 34 35 33 32 34 38 40 38 35 32 28 26 26 27 32 34 33 32 31 32 35 35 32 29 28 26 29 33 33 32 34 34 31 31 32 31 28 27 26 26 25 23 21 20 19 18 14 8 5 5 5 7 8 8 7 6 5 6 6 6 7 6 5 7 9 10 11 12 12 12 11 11 13 16 17 15
26 26 29 32 33 34 34 35 35 34 35 35 37 40 43 43 40 36 33 30 29 26 23 28 32 32 34 33 33 36 37 34 30 28 28 29 33 34 33 35 36 34 32 32 31 30 29 27 26 26 24 22 21 20 19 17 10 5 3 2 3 3 3 3 3 4 5 7 7 6 6 5 6 8 9 10 11 12 12 11 11 14 17 18 17
22 25 30 33 33 34 34 34 34 34 34 36 38 41 43 42 36 31 32 34 36 33 28 29 33 33 35 35 35 37 38 36 31 28 29 29 32 34 33 34 36 35 34 33 32 32 31 30 29 28 25 22 21 21 19 18 15 9 4 1 1 1 2 1 2 3 4 6 6 6 6 5 5 7 7 8 9 10 11 10 11 14 17 19 18
22 25 31 34 35 34 34 34 33 32 32 35 39 39 37 34 28 23 25 28 30 31 30 31 34 34 35 38 37 37 38 37 34 30 29 29 31 33 34 35 36 35 34 34 34 33 32 32 30 30 29 26 23 21 18 17 17 15 10 3 1 0 3 2 2 2 3 5 6 7 6 5 5 6 7 8 8 8 11 11 12 15 19 19 20
26 30 33 36 37 37 35 34 34 33 31 33 37 37 34 33 30 27 27 27 25 29 34 34 34 35 36 39 39 37 38 38 36 32 31 31 31 31 33 34 35 35 34 34 34 34 33 32 30 30 31 30 26 20 17 16 16 17 16 11 6 3 3 4 4 1 3 4 6 6 6 6 6 7 7 8 9 9 12 12 12 15 19 21 21
30 32 34 35 36 37 37 36 34 33 32 34 35 34 33 34 34 34 33 32 28 30 39 42 40 39 38 39 39 38 38 39 38 35 32 33 32 31 31 32 33 34 34 34 34 34 33 32 31 30 30 30 27 22 18 17 16 16 18 17 14 9 5 4 4 1 1 3 6 7 7 8 8 8 8 8 8 9 11 12 13 14 17 21 21
32 33 33 34 36 38 38 37 36 34 33 35 35 34 35 35 34 33 33 35 34 31 37 40 41 40 36 35 37 37 37 39 39 37 34 34 34 33 31 30 32 34 34 34 35 34 33 32 31 30 30 29 28 24 20 19 17 17 18 18 16 13 10 8 5 4 3 0 3 4 6 8 9 8 8 7 7 9 10 11 14 16 16 18 19
31 34 35 36 37 39 39 37 36 35 34 34 34 35 36 36 34 32 31 34 35 34 35 37 38 38 35 33 35 35 36 37 38 38 36 35 35 36 34 32 32 33 33 34 34 34 34 33 32 30 29 29 28 25 22 21 20 19 19 18 15 13 12 11 9 6 5 3 2 3 3 4 6 8 9 9 7 8 10 11 13 17 18 17 18
34 36 35 36 37 37 37 37 35 34 33 33 33 35 35 34 34 34 33 32 32 33 34 35 36 36 35 35 36 36 36 35 36 37 37 37 36 37 37 35 33 32 33 34 34 35 35 33 32 31 29 29 29 26 23 22 21 19 20 20 16 13 10 10 11 9 5 4 2 2 3 3 3 5 6 9 10 8 9 12 14 17 18 17 17
22 34 35 34 36 36 35 36 35 33 32 31 32 34 36 35 35 36 35 34 33 32 33 33 33 33 34 36 36 36 36 36 35 36 37 37 37 37 37 36 34 33 33 33 34 35 34 33 32 30 29 29 28 26 25 24 21 18 20 22 20 18 15 12 14 13 7 5 4 2 4 5 6 6 2 3 8 9 8 10 15 17 16 17 18
Wind_Direction
171 170 166 162 159 156 152 150 148 147 145 144 143 143 143 141 140 139 138 137 135 133 131 131 132 132 132 131 131 130 129 129 130 130 129 129 127 127 126 125 125 124 124 120 117 115 114 113 111 109 108 108 107 106 103 101 100 99 97 95 93 92 92 95 97 99 100 97 97 93 88 95 99 94 87 85 87 88 88 88 90 89 86 85 90
169 168 164 163 160 157 155 151 150 148 146 146 145 145 144 143 142 140 139 138 136 134 133 134 135 135 134 133 132 132 132 131 132 131 130 129 128 128 127 126 125 125 123 119 118 117 116 114 111 109 107 107 109 109 105 103 103 101 99 97 94 92 91 92 96 97 98 97 96 97 95 96 97 93 90 90 90 90 89 88 90 90 88 86 86
163 164 164 162 161 160 157 153 152 150 149 147 146 147 145 145 143 142 140 139 137 135 135 136 138 137 136 135 134 133 133 133 133 132 131 130 130 129 128 127 126 124 122 120 119 117 116 113 110 108 107 107 109 109 106 106 105 103 101 99 97 95 92 90 92 94 97 99 100 101 100 97 95 92 92 94 92 90 88 86 88 90 91 89 88
160 162 163 163 163 162 159 156 155 152 151 149 148 148 147 146 144 143 142 141 139 138 139 140 141 140 138 136 135 134 134 135 135 134 133 132 132 130 129 127 126 125 123 122 119 118 116 114 111 108 108 108 109 108 107 107 106 104 101 99 97 95 95 94 93 92 94 100 104 101 97 97 96 93 90 88 87 87 85 83 85 88 91 91 88
160 161 163 164 164 163 161 158 157 154 152 151 151 150 149 148 146 145 144 143 141 141 142 142 143 142 140 138 135 135 136 137 137 136 136 135 133 130 129 127 127 126 124 122 120 119 117 115 112 110 109 110 111 110 108 107 106 103 98 95 92 91 92 96 100 99 95 96 102 100 95 95 97 95 91 89 87 87 85 84 87 87 89 90 89
162 162 164 164 165 165 163 161 158 156 154 153 152 152 151 150 149 148 148 146 145 144 144 145 145 144 142 139 138 136 137 139 139 139 137 136 134 131 130 129 128 127 125 123 122 121 119 117 114 112 111 112 112 111 109 108 106 102 95 90 87 88 91 97 108 111 103 96 101 102 100 99 98 97 91 90 91 90 89 86 88 90 91 90 90
163 163 165 164 165 165 164 163 160 158 156 155 155 155 153 153 152 151 151 150 149 148 147 147 147 146 144 142 140 139 139 140 141 140 139 137 134 133 132 131 130 128 126 125 124 123 121 119 115 113 112 113 112 111 110 109 107 102 95 90 89 93 98 105 113 122 118 108 107 107 107 107 103 99 92 89 91 90 90 88 87 89 90 88 87
162 163 165 164 164 165 165 164 162 160 158 157 157 157 156 156 156 155 154 153 152 151 150 150 150 149 146 145 143 141 141 141 142 141 140 139 137 135 134 133 132 130 128 127 126 125 123 120 117 115 114 114 111 109 109 108 105 103 100 94 95 102 108 111 118 128 128 117 111 112 112 112 108 103 95 89 89 89 90 90 89 89 88 87 85
161 164 165 165 165 166 166 166 165 162 161 160 159 159 159 159 159 158 157 156 156 155 154 153 153 152 149 148 146 144 143 142 143 143 143 141 139 138 136 135 134 132 130 129 128 126 124 121 119 117 116 114 111 108 106 106 103 102 103 100 100 107 112 114 120 126 126 118 112 114 114 113 110 107 100 91 89 89 90 91 91 90 88 86 84
161 165 167 166 166 167 166 167 167 165 164 162 162 162 162 162 162 161 160 159 159 158 157 157 157 156 153 151 149 147 145 144 145 145 146 143 142 141 139 138 136 134 132 130 130 128 126 123 121 120 117 113 110 107 105 104 101 101 104 106 106 109 113 114 118 122 129 125 114 115 116 115 113 109 103 96 91 87 87 88 88 85 82 81 82
161 165 168 168 168 169 168 168 170 169 167 165 164 164 164 164 164 164 163 162 161 161 160 160 160 160 157 154 152 150 148 147 147 148 148 147 145 143 142 141 140 136 134 133 132 131 127 124 123 122 118 113 108 105 103 101 100 98 102 111 112 111 114 117 120 129 143 136 119 119 121 117 113 111 106 98 93 88 85 84 83 81 77 78 79
160 164 167 168 169 170 169 169 171 171 170 167 166 165 166 166 167 167 166 165 164 164 162 162 163 163 161 158 155 153 152 150 149 151 152 150 147 146 145 144 143 139 136 135 135 133 129 127 126 125 120 114 109 105 100 97 96 95 95 105 116 116 116 121 125 134 142 131 119 121 124 118 113 113 108 102 97 91 85 81 80 79 79 79 82
159 164 166 168 169 171 171 170 172 173 172 170 168 166 167 168 168 169 169 168 167 166 165 165 165 165 164 161 159 157 154 153 152 154 155 153 150 149 148 148 147 142 140 138 137 134 131 130 129 128 124 117 112 107 98 91 90 92 89 93 109 123 123 125 127 133 135 124 117 121 122 119 118 118 113 108 101 94 87 83 81 82 84 85 86
160 164 166 168 170 171 172 172 173 174 173 173 171 169 169 169 170 170 170 170 170 169 167 167 167 167 166 164 162 160 157 156 156 157 157 156 153 153 152 152 150 145 142 140 139 136 134 133 132 132 127 122 116 108 98 90 87 89 87 88 101 121 130 132 135 141 140 127 119 120 119 120 124 122 118 113 105 98 92 89 88 90 90 90 89
162 164 165 167 168 171 173 172 174 175 175 174 173 172 172 171 171 170 170 171 172 172 170 169 169 169 168 166 166 163 161 159 159 160 160 159 156 156 156 155 152 147 144 143 141 139 136 134 134 134 130 125 118 110 102 95 92 90 89 90 98 117 131 137 146 156 152 137 123 121 120 122 126 125 121 115 110 104 98 98 99 98 95 94 92
162 162 163 166 167 170 172 172 174 176 177 176 176 175 175 174 173 172 171 171 173 175 173 172 171 171 169 168 168 167 165 163 163 164 164 162 159 159 159 158 155 149 146 145 144 141 138 136 136 135 132 126 118 111 105 101 98 95 97 95 98 122 136 140 151 162 157 144 127 126 122 123 127 126 124 116 112 108 102 102 103 104 99 97 95
160 161 161 164 167 170 171 172 174 176 179 179 178 177 177 177 176 173 171 171 174 176 175 174 174 172 171 170 170 170 169 168 166 167 168 165 162 162 162 161 158 153 150 147 146 145 141 139 138 135 130 123 117 110 108 110 108 101 104 102 100 126 142 147 158 165 160 151 135 133 125 124 128 126 124 116 113 107 101 104 105 105 101 97 93
158 160 161 163 167 169 171 172 173 175 179 180 180 179 179 179 178 176 173 173 174 176 175 175 175 174 174 172 172 173 172 172 171 172 172 169 166 166 166 165 163 159 155 152 150 149 146 143 139 134 128 121 117 115 117 121 121 112 109 108 106 130 145 152 164 170 166 160 144 140 130 125 127 124 123 118 114 106 100 102 104 105 103 98 90
157 159 161 164 167 169 170 172 173 175 177 180 181 180 180 181 180 178 175 175 174 175 176 175 175 176 177 176 175 174 174 175 175 176 176 173 171 169 169 168 167 165 161 157 156 155 153 149 143 135 129 125 121 123 129 133 132 128 120 112 113 132 148 156 164 177 181 172 157 145 134 130 128 125 124 119 116 109 102 102 103 105 103 96 88
156 160 161 165 167 169 171 172 173 175 177 179 182 182 182 182 181 180 178 176 175 175 175 176 176 177 178 179 178 176 176 178 180 181 178 176 175 173 172 171 171 170 168 164 163 164 162 156 149 141 134 132 130 134 140 142 140 138 131 115 121 138 154 162 168 185 191 179 169 152 138 134 131 128 125 122 120 115 108 107 110 108 102 94 87
156 161 164 167 169 171 172 172 174 176 177 178 180 182 183 183 182 181 181 180 177 176 175 176 177 177 179 180 180 178 179 182 184 184 180 179 178 177 176 175 174 174 174 171 171 172 172 169 159 151 144 140 139 145 152 155 153 145 138 88 103 146 156 172 180 190 187 178 173 159 144 139 135 132 130 127 126 120 112 112 113 106 100 95 87
158 163 168 170 171 173 174 174 177 178 178 179 180 180 182 183 182 180 180 181 178 175 174 176 177 178 179 181 182 183 184 185 187 186 183 181 180 180 178 178 177 178 178 176 176 178 181 179 171 162 149 145 145 152 161 175 216 232 214 320 321 227 144 184 189 189 182 179 174 163 150 143 140 137 135 132 130 123 117 115 110 103 99 98 92
160 165 170 173 173 174 176 176 178 179 179 179 180 181 181 181 180 179 178 178 176 174 173 176 178 180 181 182 184 186 187 188 189 187 185 183 182 182 181 181 181 180 181 181 181 183 186 186 184 170 149 142 136 141 102 1 318 310 308 314 312 296 319 207 197 195 188 181 174 165 154 148 145 140 139 136 132 127 122 117 108 101 97 95 95
165 167 170 174 176 176 177 178 178 180 180 179 180 180 181 179 178 178 179 177 175 176 176 177 180 182 183 185 186 187 187 189 186 184 186 185 184 182 181 183 183 184 184 183 183 186 188 191 192 170 153 145 135 114 29 24 355 350 351 324 316 305 286 219 201 200 194 185 173 165 158 153 148 141 141 138 134 131 129 124 107 100 98 94 95
165 165 171 176 178 178 177 179 179 180 181 181 180 179 181 180 177 178 178 177 178 180 180 180 182 183 185 186 187 187 187 185 181 182 189 189 186 183 182 184 185 186 186 185 185 188 190 194 191 172 160 154 156 34 341 324 319 333 329 314 314 314 282 216 196 196 194 185 173 165 161 158 150 143 142 140 138 136 133 130 113 105 107 99 98
162 167 174 178 180 181 179 180 181 182 183 183 181 180 182 181 179 179 177 177 182 185 184 184 184 185 187 187 187 187 184 182 180 185 193 192 188 185 184 186 188 189 189 187 187 190 192 193 188 176 169 176 208 317 317 317 317 307 308 312 314 313 273 208 189 193 192 181 172 166 164 161 153 147 143 143 143 138 136 135 124 114 112 104 104
166 172 177 179 181 183 183 183 182 183 184 184 183 181 183 182 181 181 179 180 184 187 186 187 188 188 190 189 189 187 182 182 183 188 196 195 193 189 186 187 190 192 192 190 192 194 194 191 185 180 178 195 270 316 309 324 323 310 310 315 316 302 228 197 189 192 189 177 170 168 167 164 157 151 146 146 144 139 141 142 131 119 111 106 107
168 174 177 179 182 185 187 186 185 185 184 185 185 184 184 184 184 184 182 180 182 186 188 189 191 191 192 191 192 188 184 185 186 190 198 198 197 193 188 189 193 195 195 195 196 195 192 186 180 178 182 201 288 304 314 332 326 318 325 341 335 255 199 190 190 189 182 174 170 169 169 167 161 156 149 148 146 143 149 147 132 123 114 108 105
168 175 178 180 183 186 188 189 189 188 186 186 186 185 183 185 186 185 186 184 182 187 190 191 192 193 194 194 194 190 188 188 189 193 200 201 202 198 191 190 194 196 197 196 197 194 184 176 173 174 182 230 303 318 332 339 333 330 345 3 359 210 192 188 189 184 176 173 171 169 170 171 165 159 152 149 149 149 157 151 136 129 116 109 101
175 176 178 181 184 186 189 192 193 191 189 187 186 185 182 185 187 187 190 190 186 187 189 191 193 194 194 195 196 195 193 191 191 195 201 203 205 202 195 192 194 196 198 196 193 191 180 170 171 175 184 270 315 341 342 339 342 342 341 351 353 187 187 190 187 179 175 175 171 170 171 174 168 163 157 152 153 157 162 156 142 133 117 112 100
180 176 179 183 183 186 190 193 194 193 192 190 187 185 183 185 188 191 193 194 191 188 189 190 193 195 195 196 197 199 198 194 193 196 201 204 206 206 200 195 195 196 199 196 189 187 180 171 172 172 183 273 293 324 326 324 333 333 342 353 3 175 185 189 186 180 179 178 175 172 171 175 174 167 161 158 162 164 165 159 146 134 121 119 103
183 180 182 183 184 188 190 193 195 193 193 192 190 186 185 187 189 193 196 197 195 192 192 191 193 196 196 196 198 200 199 195 195 198 202 204 206 210 206 199 196 196 198 194 188 184 179 175 174 174 195 257 263 261 284 302 322 345 357 6 51 158 183 189 188 189 184 183 178 173 172 178 178 173 166 164 169 168 164 161 149 135 128 121 102
189 187 185 185 187 189 191 193 194 195 196 195 194 190 189 189 191 194 197 200 198 196 196 194 194 197 197 196 198 200 198 195 196 198 202 203 207 213 210 204 198 196 198 193 188 186 182 182 183 185 208 234 243 246 263 281 311 6 24 34 77 139 174 183 186 190 188 187 181 174 176 184 183 176 174 172 174 171 166 165 154 141 136 135 126
191 190 186 186 189 190 192 193 194 197 198 196 195 192 190 190 192 194 196 200 201 201 201 197 196 197 198 197 197 198 196 196 199 199 202 203 206 213 213 208 200 196 196 192 190 189 187 188 191 197 210 225 236 243 256 263 278 357 61 59 46 125 154 167 180 187 192 186 178 179 184 192 189 182 182 179 178 175 169 170 163 152 146 150 143
190 191 190 188 190 192 192 193 195 194 192 192 191 188 189 190 193 196 196 200 203 204 205 201 198 199 199 196 196 196 194 197 201 199 201 204 206 213 215 210 202 195 193 191 191 193 194 194 196 202 209 221 232 242 252 257 265 276 314 13 273 197 142 161 176 182 187 183 179 186 190 196 196 191 189 183 182 183 178 175 169 161 158 157 149
194 190 192 190 190 192 192 192 192 188 186 187 188 189 193 194 194 197 199 202 204 205 208 206 203 202 201 198 196 194 193 197 202 202 202 204 208 212 216 210 202 195 192 194 196 198 199 202 203 203 207 216 224 234 242 255 267 269 292 292 207 241 281 164 163 175 180 181 184 189 191 199 203 200 195 188 187 190 186 181 175 168 166 160 154
203 194 192 191 189 189 190 189 186 185 187 189 191 194 196 195 196 197 199 203 204 204 206 209 210 210 207 204 198 194 195 198 201 204 204 205 209 213 216 210 203 198 196 199 203 202 201 205 204 202 209 214 218 226 229 248 266 268 294 285 228 244 269 198 148 171 181 184 185 190 193 198 207 205 201 196 192 193 190 188 183 173 171 170 168
207 200 197 195 189 186 187 185 184 187 187 186 187 189 188 190 195 195 196 200 202 202 203 206 212 215 213 210 202 196 197 200 202 206 208 208 210 214 216 212 207 203 202 207 209 207 205 205 202 201 207 209 211 220 224 236 252 275 299 274 225 227 250 267 267 197 195 193 186 191 194 200 212 210 206 203 198 195 192 192 189 178 178 182 181
208 204 199 195 186 182 183 183 185 187 184 182 182 183 185 191 198 195 195 198 198 197 199 203 209 215 216 215 206 199 201 203 204 208 211 210 210 213 215 214 212 210 210 213 212 211 209 206 204 202 202 203 207 220 232 239 247 276 306 244 212 224 248 271 266 238 223 209 199 192 188 205 219 215 213 209 205 201 197 196 193 186 184 188 190
210 203 193 189 183 177 179 182 185 185 181 180 180 183 190 197 205 203 200 201 199 197 196 198 204 211 216 217 210 204 206 207 206 209 213 212 210 211 215 215 215 216 215 212 208 208 209 206 205 204 201 202 210 226 238 242 245 259 274 232 223 231 251 261 253 248 245 222 209 192 181 206 224 222 219 213 211 207 202 201 199 197 190 187 193
212 202 187 183 180 178 179 183 185 184 180 177 176 183 194 196 201 203 199 200 202 200 196 194 199 207 212 216 213 208 209 210 208 210 213 214 212 211 214 215 215 217 213 208 205 207 209 208 207 207 206 208 213 224 235 240 243 253 261 249 240 238 248 260 257 250 249 236 211 190 181 203 226 229 223 214 212 210 206 206 202 201 193 185 190
207 199 186 181 180 181 184 185 185 183 186 188 183 189 201 199 199 200 194 191 195 198 196 194 197 203 209 214 214 211 210 210 210 210 213 215 213 211 213 215 214 213 210 209 210 211 211 211 210 211 212 215 219 223 230 235 237 240 251 260 259 255 252 262 264 244 235 226 199 184 185 207 230 231 221 211 209 207 206 207 203 200 193 189 194
204 194 184 181 180 182 185 185 185 186 193 197 191 195 206 206 202 199 190 185 187 191 194 196 198 202 207 212 214 213 211 210 208 210 212 214 215 212 212 214 214 212 212 214 216 217 217 215 214 214 214 217 225 228 230 234 233 218 212 251 271 276 278 279 258 217 205 197 183 183 193 206 227 233 224 209 207 210 208 203 198 198 195 193 199
201 189 180 178 180 182 186 186 188 193 197 198 197 200 206 205 202 197 190 187 190 190 189 194 200 203 206 210 213 213 211 210 208 208 211 213 214 214 213 214 213 213 215 218 220 221 221 220 218 219 218 219 224 228 229 232 231 212 183 221 231 68 317 282 202 186 177 170 177 190 199 208 226 235 225 209 213 219 212 199 190 196 200 200 203
195 188 181 180 181 183 189 191 191 194 199 201 200 199 199 197 194 189 183 183 185 185 183 188 195 199 204 207 211 212 211 211 209 207 209 209 211 212 213 214 213 214 216 220 223 223 222 222 222 223 223 221 220 221 224 227 228 218 206 197 99 111 246 195 153 213 200 174 184 195 203 220 237 241 226 221 236 229 207 199 193 197 202 203 206
192 192 186 184 184 186 190 192 193 194 199 203 199 192 192 191 187 181 177 176 177 180 184 189 192 197 202 205 207 210 210 210 209 208 208 207 206 207 210 212 213 216 219 221 223 223 223 223 223 223 223 221 220 218 216 219 224 224 221 223 227 238 217 150 136 262 263 210 206 204 209 226 245 253 239 231 242 224 200 201 200 201 205 204 205
191 192 189 186 185 187 189 190 192 194 198 202 197 188 189 191 189 187 184 183 183 184 189 192 195 199 202 204 205 207 208 209 209 209 209 208 207 206 209 212 215 218 220 220 221 223 225 226 225 226 225 222 219 217 213 213 216 219 222 226 233 240 229 183 163 178 309 241 222 218 219 235 252 256 247 238 236 219 203 203 203 206 212 208 205
191 187 184 184 186 187 188 190 192 195 199 202 196 189 189 190 190 191 191 192 192 192 193 194 195 199 202 204 205 206 206 207 209 209 209 210 211 211 213 215 217 219 220 221 222 225 227 228 227 228 228 224 220 219 217 213 211 212 213 219 231 239 238 234 215 170 136 183 251 239 226 237 251 246 243 244 241 230 219 208 200 205 214 210 207
186 184 183 183 186 188 188 189 192 195 199 201 197 193 192 191 190 191 194 197 198 197 196 195 195 198 202 204 204 205 206 206 208 210 211 211 213 215 217 219 219 220 221 223 225 228 230 230 229 229 229 226 222 223 224 219 216 213 210 213 222 232 236 241 234 191 147 153 253 273 243 234 246 242 240 238 241 244 230 210 199 204 210 209 210
184 183 183 181 183 186 187 188 191 195 198 199 197 194 192 192 192 192 194 198 200 198 196 196 197 198 199 201 202 204 206 206 207 209 211 213 214 216 218 220 220 221 222 225 228 230 233 233 232 231 230 227 223 224 227 225 222 218 215 213 211 214 222 236 237 214 161 142 177 244 246 229 232 244 243 227 229 244 231 207 199 204 207 208 211
198 183 178 179 182 184 187 189 191 195 197 198 197 194 192 192 195 196 196 197 198 196 195 198 200 199 197 197 199 202 204 205 206 207 210 213 215 216 218 220 221 221 222 224 229 232 234 235 233 232 231 227 223 225 227 224 223 221 218 217 216 217 218 223 231 222 192 159 153 178 221 231 245 253 247 199 219 232 229 209 201 202 205 209 210